Estación meteorológica de Calldetenes (Osona, Plana de Vic)

Consulta los datos en tiempo real de la estación meteorológica de Calldetenes





Hora UTC 05:40
Temperatura 20.7 ºC
Suelo 15 cm 20.4 ºC
Humedad 84.4 %
Presión 1021.3 hPa
Pluja 0.0 mm
Velocidad viento 3.4 km/h
Dirección viento S
Radiación solar 14.3 W/m²

Webcam

Datos diarios 2026-09-01



Hora UTC (invierno +1h; verano +2h)
Temperatura (ºC) Humedad (%) Presión (hPa) Velocidad viento (km/h) Precipitación (mm) Radiación solar (W/m²)
Hora UTC Aire Suelo 15 cm Humedad Presión Vel. Dir. Vel. Max Dir. Intent. máx 5 min. Rad. Sol.
00:05 20.0 20.0 83.2 1022.3 0.5 S 0.5 S 0.0 0.1
00:10 19.8 19.8 84.2 1022.3 1.9 SSE 3.5 SSE 0.0 0.1
00:15 19.5 19.6 85.0 1022.3 2.0 ESE 6.7 SE 0.0 0.1
00:20 19.2 19.4 86.0 1022.3 5.1 ESE 7.4 ESE 0.0 0.1
00:25 19.1 19.3 87.3 1022.3 4.3 SE 6.4 SE 0.0 0.1
00:30 19.1 19.2 88.2 1022.3 2.0 ESE 4.2 ESE 0.0 0.1
00:35 19.2 19.3 88.3 1022.2 2.8 E 4.2 ESE 0.0 0.1
00:40 19.4 19.4 88.7 1022.2 2.3 ESE 4.2 ESE 0.0 0.1
00:45 19.7 19.7 88.3 1022.2 2.8 ESE 4.6 E 0.0 0.1
00:50 19.8 19.9 87.3 1022.2 2.5 ESE 3.9 ESE 0.0 0.1
00:55 19.9 20.1 87.2 1022.2 2.7 ESE 4.6 ESE 0.0 0.1
01:00 20.1 20.3 86.7 1022.2 3.0 SE 4.9 SSE 0.0 0.1
01:05 20.2 20.4 86.9 1022.2 2.7 S 5.6 S 0.0 0.1
01:10 20.7 20.6 86.8 1022.2 3.4 SSW 5.3 S 0.0 0.1
01:15 21.1 20.9 84.7 1022.1 2.7 S 5.3 S 0.0 0.1
01:20 21.1 21.1 83.7 1022.1 0.0 NNE 0.0 SSW 0.0 0.1
01:25 21.0 21.2 83.8 1022.1 0.8 W 2.8 WNW 0.0 0.1
01:30 21.0 21.1 84.3 1022.1 1.3 WSW 4.2 WSW 0.0 0.1
01:35 21.1 21.2 84.5 1022.1 2.8 WSW 4.6 WSW 0.0 0.1
01:40 21.2 21.2 84.2 1022.1 2.3 WSW 3.9 WSW 0.0 0.1
01:45 21.2 21.3 83.8 1022.1 2.3 SW 3.9 SW 0.0 0.1
01:50 21.3 21.4 83.5 1022.1 2.8 SW 4.2 SW 0.0 0.1
01:55 21.3 21.4 83.1 1022.1 2.7 SW 6.7 S 0.0 0.1
02:00 21.5 21.5 82.8 1022.1 3.0 SW 6.0 SSW 0.0 0.1
02:05 21.6 21.6 82.2 1022.1 4.1 SW 7.1 SW 0.0 0.1
02:10 21.6 21.6 82.4 1022.1 3.3 SSW 6.4 SW 0.0 0.1
02:15 21.7 21.7 82.3 1022.1 3.7 SW 5.6 SSW 0.0 0.1
02:20 21.7 21.7 82.4 1022.1 3.1 SW 6.4 WSW 0.0 0.1
02:25 21.7 21.7 82.3 1022.0 3.8 SW 6.0 SW 0.0 0.1
02:30 21.6 21.7 82.5 1022.0 2.9 SSW 5.3 SSW 0.0 0.1
02:35 21.7 21.7 82.5 1021.9 3.1 SSW 5.3 SSW 0.0 0.1
02:40 21.7 21.7 82.4 1021.9 3.2 SSW 6.7 SSW 0.0 0.1
02:45 21.7 21.6 82.3 1021.8 2.6 WSW 4.9 WSW 0.0 0.1
02:50 21.6 21.6 82.7 1021.8 3.8 SW 6.4 SW 0.0 0.1
02:55 21.6 21.6 82.9 1021.7 3.7 SW 6.7 SSW 0.0 0.1
03:00 21.6 21.6 82.9 1021.7 4.3 WSW 6.7 SW 0.0 0.1
03:05 21.6 21.6 83.1 1021.7 2.0 SW 4.6 WSW 0.0 0.1
03:10 21.6 21.7 82.9 1021.7 1.4 SW 3.5 W 0.0 0.1
03:15 21.6 21.6 82.9 1021.7 3.3 SW 7.4 SW 0.0 0.1
03:20 21.6 21.6 83.4 1021.7 1.9 WSW 4.9 SW 0.0 0.1
03:25 21.6 21.7 83.2 1021.5 3.0 WSW 6.4 WSW 0.0 0.1
03:30 21.6 21.7 83.4 1021.5 2.8 WSW 5.3 SSW 0.0 0.1
03:35 21.6 21.7 83.3 1021.5 1.9 WSW 4.9 WSW 0.0 0.1
03:40 21.6 21.7 83.4 1021.5 3.0 WNW 5.6 WNW 0.0 0.1
03:45 21.6 21.6 83.6 1021.4 2.4 W 4.2 W 0.0 0.1
03:50 21.5 21.5 83.7 1021.4 2.2 W 7.1 W 0.0 0.1
03:55 21.5 21.4 83.7 1021.4 5.0 WNW 6.7 W 0.0 0.1
04:00 21.3 21.2 82.3 1021.4 3.5 NW 5.3 NW 0.0 0.1
04:05 21.2 21.1 82.6 1021.3 2.1 NNW 4.9 NNW 0.0 0.1
04:10 21.0 20.9 83.0 1021.3 3.8 NW 6.0 NW 0.0 0.1
04:15 20.9 20.7 83.7 1021.3 1.5 NW 3.5 NW 0.0 0.1
04:20 20.9 20.6 84.1 1021.3 0.1 NNW 1.1 NNW 0.0 0.1
04:25 20.8 20.5 84.3 1021.3 0.0 NNE 0.0 NNW 0.0 0.1
04:30 20.8 20.5 84.4 1021.3 0.0 NNE 0.0 NNW 0.0 0.1
04:35 20.5 20.5 85.1 1021.2 0.0 NNE 0.0 NNW 0.0 0.1
04:40 20.3 20.4 86.5 1021.2 0.0 NNW 1.1 NNW 0.0 0.1
04:45 20.4 20.3 86.9 1021.2 0.7 NW 1.8 NNW 0.0 0.1
04:50 20.4 20.2 86.1 1021.2 0.0 NNE 0.0 SSE 0.0 0.1
04:55 20.3 20.1 86.7 1021.2 0.2 SSE 1.8 SSE 0.0 0.2
05:00 20.2 20.1 87.2 1021.2 1.8 S 3.2 SSE 0.0 0.3
05:05 20.3 20.1 88.0 1021.2 3.3 S 4.2 S 0.0 0.5
05:10 20.5 20.2 87.3 1021.2 1.8 S 4.2 SSW 0.0 1.0
05:15 20.3 20.2 86.8 1021.2 1.8 S 3.5 SSE 0.0 1.7
05:20 20.2 20.1 87.8 1021.2 2.5 S 4.2 S 0.0 2.7
05:25 20.2 20.0 88.0 1021.3 1.8 S 4.2 SW 0.0 4.5
05:30 20.4 20.1 86.6 1021.3 3.7 SSW 6.4 SSW 0.0 7.0
05:35 20.6 20.2 85.0 1021.3 3.4 S 6.0 S 0.0 10.8
05:40 20.7 20.4 84.4 1021.3 3.4 S 5.3 S 0.0 14.3
Máxima 21.7 21.7 88.7 1022.3 5.1 ESE 7.4 SW 0.0 14.3
Mínima 19.1 19.2 82.2 1021.2
Total 0.0